Retour au catalogue

PIESAT-2 10

ActifScienceSSO
NORAD 62334·PAYLOAD·🇨🇳 China

Lancé Dec 16, 2024 depuis Taiyuan Satellite Launch Center

Loading…

Prochains Passages (prochaines 24 heures)

TLE

FraisSource: Space-Track

Époque: Sep 14, 2026, 22:36 UTC

1 62334U 24241B   26257.94203661  .00007918  00000-0  42324-3 0  9997
2 62334  97.5405 205.1967 0001932  76.7889 283.3559 15.15352959 96397

Suivez PIESAT-2 10 en temps réel avec AllMySat

Download on the App Store